Dauntless Aviation
Greetings, Guest! To participate, [sign up for a free account] or [log in]
Airports Asia Indonesia
WIHH
HLP

Halim Perdanakusuma International Airport

Jakarta, INDONESIA

Airport Info
Edit

Location

Latitude / Longitude: 6°15'59"S / 106°53'27"E
  6°15.996'S / 106°53.46'E
  -6.2666 / 106.8910

Nearby radio navigation aids

AL HALIM PERDANAKUSUMA NDB. 243.5° 9.9nm from AL to field.
HLM HALIM PERDANAKUSUMA VOR/DME on field.

Runway Information

Runway 06 /24

Dimensions: 9843 x 197 ft.
Surface: ASP
 
Runway 06
Runway 24
Latitude: -6.272253 -6.261711
Longitude: 106.878792 106.9018
Elevation: 79 ft. 79 ft.
Runway true heading: 64 244
 

Instrument Procedures

  Aerodrome Chart

IAPs (Instrument Approach Procedures)

  ILS Rwy 24
  VOR Rwy 24
  VOR/DME Rwy 24
  VOR Rwy 06
  NDB Rwy 24

Departure Procedures

  SID 2M Departures
  SID 1H/ 2H Departures
Satellite photo at:
Airport distance calculator
From:
Weather Reports

METAR

WIII
15.6nm W
WIII 232330Z 18005KT 4800 HZ FEW022 27/24 Q1009 NOSIG

TAF

WIHH
TAF WIHH 231100Z 2312/2412 08005KT 5000 HZ SCT017 TEMPO 2322/2324 00000KT 3000 FEW017 BECMG 2401/2403 12008KT 5000 HZ
WIII
15.6nm W
TAF WIII 231700Z 2318/2424 20008KT 8000 SCT020 TEMPO 2321/2324 VRB03KT 3000 BR SCT020 BECMG 2404/2406 05010KT 9000 FEW018CB SCT020
Safelog

 

Dauntless Aviation

© 2007-2014 Dauntless Aviation, all rights reserved
Information provided via PilotNav comes from a variety of official and unofficial data sources. As errors are possible, do not use PilotNav for primary flight planning purposes. Verify any information that you receive via PilotNav with current and canonical charts and other official documents. The material in this database is subject to database copyrights held by Dauntless Aviation and may not be copied without the express permission of Dauntless Aviation - licenses for use of part of all of this data are available for purchase; enquire via the Dauntless Aviation helpdesk. A number of mechanisms and markers exist in the database to protect against and identify infringement / copyright. Automated queries against this website are stictly prohibited, and all activity is logged and analyzed.